Location: Caixon
(43.4106°N, 0.0273°E)
Time: 22:54:28
(UTC+00:00)

NOSS 3-1 (C) - Pass Details

Date: 16 October 2021
Orbit: 717 x 1491 km, 63.4° (Epoch: 25 November)

Event Time Altitude Azimuth Distance (km) Brightness Sun altitude
Exits shadow 04:46:51 - 320° (NW) 3,686 6.2 -16.8°
Reaches altitude 10° 04:48:31 10° 318° (NW) 3,125 5.8 -16.5°
Maximum altitude 04:56:07 65° 239° (WSW) 1,454 4.1 -15.1°
Drops below altitude 10° 05:04:51 10° 160° (SSE) 3,570 6.7 -13.5°
Sets 05:07:57 0° 158° (SSE) 4,583 7.3 -12.9°
